Hourly Weather Konjic

Today, 26 October, Monday

Time Temperature Precipitation Wind Pressure Humidity
00:00 +10°C° 0 mm 1 mps 695 mmHg 96%
01:00 +10°C° 0 mm 1 mps 695 mmHg 96%
02:00 +10°C° 0 mm 1 mps 695 mmHg 96%
03:00 +10°C° 0 mm 1 mps 695 mmHg 96%
04:00 +10°C° 0 mm 1 mps 695 mmHg 96%
05:00 +10°C° 0 mm 1 mps 695 mmHg 96%
06:00 +10°C° 0 mm 1 mps 695 mmHg 96%
07:00 +9°C° 0 mm 2 mps 695 mmHg 96%
08:00 +10°C° 0 mm 2 mps 695 mmHg 91%
09:00 +13°C° 0 mm 2 mps 695 mmHg 86%
10:00 +14°C° 0 mm 2 mps 696 mmHg 80%
11:00 +15°C° 0 mm 2 mps 696 mmHg 77%
12:00 +15°C° 0 mm 2 mps 695 mmHg 74%
13:00 +16°C° 0 mm 2 mps 695 mmHg 72%
14:00 +15°C° 0 mm 2 mps 695 mmHg 76%
15:00 +14°C° 0 mm 2 mps 695 mmHg 80%
16:00 +14°C° 0 mm 2 mps 694 mmHg 84%
17:00 +13°C° 0 mm 2 mps 694 mmHg 87%
18:00 +10°C° 0 mm 2 mps 694 mmHg 91%
19:00 +9°C° 0 mm 2 mps 694 mmHg 94%
20:00 +9°C° 0 mm 2 mps 694 mmHg 94%
21:00 +9°C° 0 mm 2 mps 694 mmHg 93%
22:00 +8°C° 0 mm 2 mps 694 mmHg 93%
23:00 +8°C° 0 mm 2 mps 694 mmHg 92%

Tomorrow, 27 October, Tuesday

Time Temperature Precipitation Wind Pressure Humidity
00:00 +8°C° 0 mm 2 mps 694 mmHg 92%
01:00 +8°C° 0 mm 2 mps 694 mmHg 91%
02:00 +8°C° 0 mm 2 mps 694 mmHg 92%
03:00 +9°C° 0 mm 1 mps 694 mmHg 92%
04:00 +8°C° 0 mm 1 mps 693 mmHg 92%
05:00 +9°C° 0 mm 1 mps 693 mmHg 92%
06:00 +9°C° 0 mm 1 mps 694 mmHg 91%
07:00 +9°C° 0 mm 1 mps 694 mmHg 91%
08:00 +10°C° 0 mm 2 mps 694 mmHg 85%
09:00 +13°C° 0 mm 2 mps 694 mmHg 79%
10:00 +15°C° 0 mm 2 mps 694 mmHg 73%
11:00 +15°C° 0 mm 2 mps 694 mmHg 69%
12:00 +16°C° 0 mm 2 mps 694 mmHg 66%
13:00 +17°C° 0 mm 2 mps 694 mmHg 63%
14:00 +16°C° 0 mm 2 mps 694 mmHg 68%
15:00 +15°C° 0 mm 1 mps 693 mmHg 74%
16:00 +14°C° 0 mm 1 mps 693 mmHg 79%
17:00 +13°C° 0 mm 1 mps 693 mmHg 83%
18:00 +12°C° 0 mm 1 mps 693 mmHg 86%
19:00 +11°C° 0 mm 1 mps 693 mmHg 90%
20:00 +10°C° 0 mm 1 mps 693 mmHg 90%
21:00 +10°C° 0 mm 1 mps 694 mmHg 90%
22:00 +10°C° 0 mm 1 mps 694 mmHg 91%
23:00 +10°C° 0 mm 1 mps 694 mmHg 90%

Day after tomorrow, 28 October, Wednesday

Time Temperature Precipitation Wind Pressure Humidity
00:00 +9°C° 0 mm 1 mps 694 mmHg 90%
01:00 +8°C° 0 mm 0 mps 693 mmHg 90%
02:00 +9°C° 0 mm 1 mps 693 mmHg 89%
03:00 +9°C° 0 mm 1 mps 693 mmHg 89%
04:00 +9°C° 0 mm 1 mps 693 mmHg 88%
05:00 +9°C° 0 mm 1 mps 694 mmHg 87%
06:00 +9°C° 0 mm 1 mps 694 mmHg 86%
07:00 +9°C° 0 mm 1 mps 694 mmHg 85%
08:00 +11°C° 0 mm 1 mps 695 mmHg 79%
09:00 +13°C° 0 mm 1 mps 695 mmHg 74%
10:00 +15°C° 0 mm 1 mps 696 mmHg 68%
11:00 +15°C° 0 mm 1 mps 696 mmHg 65%
12:00 +16°C° 0 mm 1 mps 696 mmHg 63%
13:00 +18°C° 0 mm 1 mps 696 mmHg 60%
14:00 +16°C° 0 mm 1 mps 696 mmHg 66%
15:00 +14°C° 0 mm 0 mps 695 mmHg 72%
16:00 +13°C° 0 mm 0 mps 695 mmHg 78%
17:00 +12°C° 0 mm 0 mps 695 mmHg 81%
18:00 +10°C° 0 mm 0 mps 695 mmHg 85%
19:00 +9°C° 0 mm 0 mps 696 mmHg 88%
20:00 +9°C° 0 mm 0 mps 696 mmHg 88%
21:00 +9°C° 0 mm 0 mps 696 mmHg 89%
22:00 +8°C° 0 mm 0 mps 696 mmHg 89%
23:00 +8°C° 0 mm 0 mps 696 mmHg 89%

29 October, Thursday

Time Temperature Precipitation Wind Pressure Humidity
00:00 +8°C° 0 mm 0 mps 696 mmHg 89%
01:00 +8°C° 0 mm 0 mps 696 mmHg 89%
02:00 +8°C° 0 mm 0 mps 696 mmHg 89%
03:00 +8°C° 0 mm 0 mps 696 mmHg 88%
04:00 +9°C° 0 mm 1 mps 696 mmHg 88%
05:00 +8°C° 0 mm 0 mps 697 mmHg 87%
06:00 +8°C° 0 mm 0 mps 697 mmHg 86%
07:00 +8°C° 0 mm 0 mps 697 mmHg 85%
08:00 +10°C° 0 mm 0 mps 698 mmHg 78%
09:00 +13°C° 0 mm 0 mps 698 mmHg 71%
10:00 +15°C° 0 mm 0 mps 699 mmHg 64%
11:00 +15°C° 0 mm 0 mps 699 mmHg 62%
12:00 +18°C° 0 mm 1 mps 699 mmHg 60%
13:00 +18°C° 0 mm 1 mps 699 mmHg 58%
14:00 +16°C° 0 mm 1 mps 699 mmHg 66%
15:00 +15°C° 0 mm 1 mps 699 mmHg 73%
16:00 +14°C° 0 mm 1 mps 699 mmHg 80%
17:00 +13°C° 0 mm 1 mps 700 mmHg 84%
18:00 +12°C° 0 mm 1 mps 700 mmHg 88%
19:00 +10°C° 0 mm 1 mps 700 mmHg 93%
20:00 +10°C° 0 mm 1 mps 700 mmHg 93%
21:00 +10°C° 0 mm 1 mps 701 mmHg 94%
22:00 +10°C° 0 mm 1 mps 701 mmHg 94%
23:00 +10°C° 0 mm 1 mps 701 mmHg 95%

30 October, Friday

Time Temperature Precipitation Wind Pressure Humidity
00:00 +10°C° 0 mm 1 mps 701 mmHg 95%
01:00 +10°C° 0 mm 1 mps 702 mmHg 95%
02:00 +10°C° 0 mm 1 mps 702 mmHg 95%
03:00 +10°C° 0 mm 1 mps 702 mmHg 95%
04:00 +10°C° 0 mm 1 mps 702 mmHg 95%
05:00 +10°C° 0 mm 1 mps 702 mmHg 94%
06:00 +10°C° 0 mm 1 mps 702 mmHg 94%
07:00 +10°C° 0 mm 1 mps 702 mmHg 93%
08:00 +11°C° 0 mm 1 mps 703 mmHg 87%
09:00 +13°C° 0 mm 1 mps 703 mmHg 80%
10:00 +14°C° 0 mm 1 mps 703 mmHg 74%
11:00 +15°C° 0 mm 1 mps 703 mmHg 70%
12:00 +18°C° 0 mm 1 mps 703 mmHg 65%
13:00 +17°C° 0 mm 0 mps 704 mmHg 61%
14:00 +15°C° 0 mm 0 mps 703 mmHg 67%
15:00 +14°C° 0 mm 0 mps 703 mmHg 72%
16:00 +13°C° 0 mm 0 mps 703 mmHg 78%
17:00 +12°C° 0 mm 0 mps 703 mmHg 81%
18:00 +11°C° 0 mm 0 mps 702 mmHg 85%
19:00 +11°C° 0 mm 1 mps 702 mmHg 88%
20:00 +11°C° 0 mm 1 mps 702 mmHg 87%
21:00 +10°C° 0 mm 1 mps 702 mmHg 87%
22:00 +10°C° 0 mm 1 mps 702 mmHg 87%
23:00 +10°C° 0 mm 1 mps 702 mmHg 86%

31 October, Saturday

Time Temperature Precipitation Wind Pressure Humidity
00:00 +10°C° 0 mm 1 mps 702 mmHg 85%
01:00 +10°C° 0 mm 1 mps 702 mmHg 85%
02:00 +9°C° 0 mm 1 mps 702 mmHg 84%
03:00 +9°C° 0 mm 1 mps 701 mmHg 84%
04:00 +9°C° 0 mm 1 mps 701 mmHg 83%
05:00 +9°C° 0 mm 1 mps 701 mmHg 83%
06:00 +9°C° 0 mm 1 mps 701 mmHg 82%
07:00 +9°C° 0 mm 1 mps 701 mmHg 81%
Show more

We Need Your Consent

Meteoprog and our Service Providers may store and access personal data such as cookies, device identifiers or other similar technologies on your device and process such data to personalise content and ads, as well as provide social media features and to analyse the traffic.

  • Store and/or access information on your device

    Cookies, device identifiers or other information can be stored or accessed on your device for the purposes indicated above.

  • Personalised ads and content, ad and content measurement, audience insights, and products development

    Ads and content can be personalised based on a profile. More data can be added to better personalise ads and content. Ad and content performance can be measured. Insights about the audience who saw the ads and content can be derived. Such data can be used to develop or improve user’s experience, systems and software.

By clicking ‘I Agree’ you will allow the use of indicated cookies, device identifiers, web beacons or other similar technologies. Your settings can be changed in the browser on your device.

For certain purposes, legitimate interests may be relied on, rather than consent. You can read more about this in our Privacy and Cookie Policy.